Current Version              Previous Version:    01  02  03  04  05  06  07  08  09  10  11  12  13  14  15  16  17  18  19  20  21  22  23  24  25  26  27  28  29  30  
   31  32  33  34  35  36  37  38  39  40  41  42  43  44  45  46  47  48  49  50  51  52  53  54  55  56  57  58  59  60  

[Printable]
038
ASUS44 KLUB 301510
RWRTX
WEST TEXAS WEATHER ROUNDUP
NATIONAL WEATHER SERVICE LUBBOCK TX
1000 AM CDT WED JUL 30 2014

NOTE: "FAIR" INDICATES FEW OR NO CLOUDS BELOW 12,000 FEET WITH NO
SIGNIFICANT WEATHER AND/OR OBSTRUCTIONS TO VISIBILITY.

TXZ004-006>008-010-012-014-016-OKZ002-301600-
TEXAS PANHANDLE/OKLAHOMA PANHANDLE

CITY           SKY/WX    TMP DP  RH WIND       PRES   REMARKS
AMARILLO       CLOUDY    70  66  87 S6        30.10F
BORGER         CLOUDY    68  64  87 S10       30.08F
CANADIAN       HVY RAIN  66  65  96 S7        30.06S
DALHART        MOSUNNY   74  62  66 N16       30.14R
DUMAS          MOSUNNY   69  64  84 W5        30.11S
GUYMON         CLOUDY    69  64  84 NW17      30.06S
HEREFORD       PTSUNNY   72  68  86 SW7       30.12F
PAMPA          LGT RAIN  63  61  93 S9        30.10F
PERRYTON       CLOUDY    67  65  94 S18       30.06S
$$

TXZ026-029-035-045-048-301600-
SOUTHERN PANHANDLE/SOUTH PLAINS/ROLLING PLAINS

CITY           SKY/WX    TMP DP  RH WIND       PRES   REMARKS
CHILDRESS      CLOUDY    69  65  86 SE10      30.04R
SEMINOLE       MOSUNNY   82  51  33 SW8       30.06F
LUBBOCK        SUNNY     77  61  57 S12       30.06S
PLAINVIEW      SUNNY     77  63  63 S10       30.06S
SNYDER         PTSUNNY   76  65  68 S12       30.04S
$$

TXZ052-054-060>062-072-078-127-140-154-169-301600-
PERMIAN BASIN/CONCHO VALLEY/BIG COUNTRY/EDWARDS PLATEAU

CITY           SKY/WX    TMP DP  RH WIND       PRES   REMARKS
ABILENE        CLOUDY    80  65  59 S10       30.04R
BIG SPRING     PTSUNNY   84  62  46 S18       30.05S
BRADY          SUNNY     84  57  39 S8        30.06S
BROWNWOOD      PTSUNNY   81  59  47 S12       30.05S
JUNCTION       SUNNY     82  61  48 S10       30.07S
MIDLAND        MOSUNNY   85  56  37 S17G26    30.03F
ODESSA         MOSUNNY   84  53  34 S18       30.04F
SAN ANGELO     MOSUNNY   84  60  44 S13G22    30.03S
SONORA         PTSUNNY   84  59  42 S15G22    30.11S
SWEETWATER     CLOUDY    80  63  56 S14       30.07S
WINK           SUNNY     87  52  29 SE10      30.00F
$$

TXZ055-058-074-075-080-082-301600-
FAR WEST/SOUTHWEST MOUNTAINS/TRANS PECOS

CITY           SKY/WX    TMP DP  RH WIND       PRES   REMARKS
ALPINE         SUNNY     83  50  31 SW14      30.21F
DRYDEN           N/A     85  63  47 E8        30.03S
EL PASO        MOSUNNY   79  65  62 VRB3      30.11R
FORT STOCKTON  MOSUNNY   87  50  27 S6        30.04F
GUADALUPE PASS SUNNY     78  51  38 SW21      30.22R
MARFA          SUNNY     77  52  41 S8        30.22S
PECOS          SUNNY     86  50  28 CALM      30.00S
PRESIDIO       FAIR      88  51  28 SE5       30.06S
$$

TXZ014-016-019-021>030-083-301600
TEXAS TECH WEST TEXAS MESONET/TEXAS PANHANDLE/NORTHERN SOUTH PLAINS

CITY           SKY/WX    TMP DP  RH WIND       PRES   REMARKS
ABERNATHY 5ENE   N/A     77  61  58 S12       30.08S
AMARILLO 9NNE    N/A     71  66  84 S2        30.09S
AMARILLO 7SSE    N/A     71  65  83 S10       30.11F
AMHERST 1NE      N/A     75  64  68 S6        30.09S
BOOTLEG 11WNW    N/A     73  65  74 NW12      30.16S
CANADIAN 6E      N/A     65  65  99 S9        30.05S
CAPROCK CYN SP   N/A     68  66  93 NE2       30.07R
CHILDRESS 2NNE   N/A     68  65  89 SE9       30.03R
CLARENDON 2WSW   N/A     66  63  90 E3        30.09S
CLAUDE 12SW      N/A     66  65  99 NE1       30.11S
DIMMITT 2NE      N/A     71  66  84 SW5       30.12S
FLOYDADA 2NNE    N/A     76  62  60 S15       30.06F
FRIONA 2NE       N/A     70  65  84 N3        30.13F
GOODLETT 3W      N/A     69  65  86 SE9       30.01R
HART 3N          N/A     73  65  76 SW7       30.10S
HEREFORD 2NW     N/A     71  65  81 S5        30.12S
MCLEAN 1E        N/A     65  62  92 SE15      30.06F
MEMPHIS 1NE    LGT RAIN  67  64  89 NE8       30.06R
MULESHOE 2SSW    N/A     74  65  74 SW2       30.10S
OLTON 6S         N/A     75  63  64 S7        30.08S
PALO DURO SP     N/A     70  67  90 SE1       30.12S
PAMPA 2E         N/A     63  62  96 SE9       30.10F
PLAINVIEW 1S     N/A     76  63  64 S9        30.07S
SILVERTON 7ESE   N/A     68  65  93 E3        30.08R
TULIA 2ENE       N/A     71  66  83 SW8       30.09R
TURKEY 2WSW      N/A     69  67  92 E5        30.04R
UMBARGER 3NNE    N/A     70  66  87 SW6       30.12S
$$

TXZ033>036-039>041-045>048-301600
TEXAS TECH WEST TEXAS MESONET/SOUTH PLAINS

CITY           SKY/WX    TMP DP  RH WIND       PRES   REMARKS
AIKEN 3WSW       N/A     78  62  59 S14       30.07F
ANDREWS 2NE      N/A     84  49  29 S14       30.04F
ANTON 6SSW       N/A     75  64  69 S8        30.07S
BROWNFIELD 2S    N/A     79  55  43 S8        30.06S
DENVR CTY 7WNW   N/A     78  52  39 S8        30.07S
GAIL 2ESE        N/A     80  63  56 S9        30.02F
LAMESA 2SE       N/A     77  57  49 S14       30.04F
LEVELLAND 4S     N/A     75  62  63 S7        30.07F
LUBBOCK 3WNW     N/A     78  59  52 S10       30.06S
MORTON 1ENE      N/A     74  64  71 SW6       30.08F
ODONNELL 1N      N/A     79  54  42 S14       30.05S
PLAINS 3N        N/A     78  56  46 SW9       30.08S
RALLS 1SE        N/A     78  62  57 S15       30.07S
REESE CENTER     N/A     76  60  56 S12       30.07S
SEAGRAVES 1SW    N/A     79  56  43 S10       30.05F
SEMINOLE 2NNE    N/A     80  50  35 S10       30.05F
SLATON 2NE       N/A     78  60  53 S13       30.06S
SNYDER 3E        N/A     76  65  67 SE9       30.03F
SUNDOWN 8SW      N/A     76  60  56 S8        30.08S
TAHOKA 3NNE      N/A     78  56  47 S10       30.05S
WOLFFORTH 6SSW   N/A     79  58  48 S9        30.07S
$$

TXZ031-032-036>038-042>044-301600-
TEXAS TECH WEST TEXAS MESONET/ROLLING PLAINS

CITY           SKY/WX    TMP DP  RH WIND       PRES   REMARKS
ASPERMONT 3NE    N/A     79  69  71 E5        30.02F
FLUVANNA 3WNW    N/A     79  62  55 S13       30.04F
GRAHAM 5SSW      N/A     75  62  64 SE6       30.04F
GUTHRIE 10WSW    N/A     75  66  72 SE8       30.01F
HASKELL 1NW      N/A     80  64  56 S6        30.02S
JAYTON 1SSE      N/A     78  66  66 SE10      30.02F
KNOX CITY 3NW    N/A     75  62  64 SE13      30.01F
LK A HENRY 1NW   N/A     82  64  53 S12       30.02F
NORTHFIELD 1S    N/A     71  67  88 SE8       30.02S
ODELL 4ENE       N/A     69  67  95 SE12      30.02F
PADUCAH 10SW     N/A     71  67  86 SE10      30.01F
POST 1NE         N/A     79  61  53 SE7       30.03S
RRING SPRGS 3N   N/A     74  67  78 SE9       30.04S
SEYMOUR 3NW      N/A     73  65  75 SE13      30.01F
SPUR 1W          N/A     77  64  64 SE8       30.02F
WEINERT 2NNE     N/A     76  66  73 E8        30.03S
WHITE RVR 6NE    N/A     78  64  61 SE8       30.04F
$$

TXZ052-054-060>062-072-078-127-140-154-169-301600-
TEXAS TECH WEST TEXAS MESONET/PERMIAN BASIN/
CONCHO VALLEY/BIG COUNTRY/EDWARDS PLATEAU

CITY           SKY/WX    TMP DP  RH WIND       PRES   REMARKS
COYANOSA 2N      N/A     89  51  27 SE9       30.01S
JUNCTION 1SSW    N/A     83  63  50 SW7       30.07S
MERTZON 3NNE     N/A     84  64  51 S14       30.04S
SAN ANGELO 7NW   N/A     83  61  47 S12       30.04S
STRLNG CT 4WSW   N/A     84  63  48 S21       30.04S
ST LAWRNCE 5SW   N/A     80  62  53 S17       30.04F
SWEETWATR 11SW   N/A     80  64  57 S17       30.06R
WALL 1E          N/A     84  58  41 S14       30.04F
$$

TXZ055-058-074-075-080-082-301600-
TEXAS TECH WEST TEXAS MESONET/FAR WEST/SOUTHWEST MOUNTAINS/TRANS PECOS

CITY           SKY/WX    TMP DP  RH WIND       PRES   REMARKS
PRSMN GAP BBNP   N/A     87  51  29 S3        30.08R
GUADLPE MTN NP   N/A     81  49  32 W18       30.21R
$$